Weather in Nykobing Falster

Denmark     54°46′11″N   11°52′19″E
temp.,
°C
wind,
m/s
gust,
m/s
humid.,
%
clouds,
%
prec.,
mm/h
press.,
hPa
HPBL,
m
17 september, fri
fri1723:00+15nw599556 0.1 1009353
02:00+14wnw6992100 0.3 1010486
05:00+14nw6989100 0.3 1010607
08:00+14nw61083100 0.3 1010789
11:00+15nw6881100 0.1 1011755
14:00+15nw6781100 0.2 1011700
17:00+15nw578878 0.1 1011451
20:00+15ne698971 0.4 1012541
18 september, sat
sat1823:00+15ne61289100 0.1 1014743
02:00+15ne6118690 0.1 1015613
05:00+14ne61185100 0.1 1016694
08:00+15ene6108181 0.1 1017766
11:00+16ene786888 0.1 10181112
14:00+15ene7871100 0.2 10191004
17:00+15ene786481 0.1 10201131
20:00+14ene6862100 0.1 10201077
19 september, sun
sun1923:00+13ene586883 0.0 1021556
02:00+13ene5868100 0.1 1021577
05:00+12ne586889 0.0 1020535
08:00+12ene5868100 0.1 1021687
11:00+13ene6870100 0.1 1021790
14:00+14ene7867100 0.4 10211149
17:00+14ene6861100 0.1 10211162
20:00+11ene486793 0.1 1021258
20 september, mon
mon2023:00+10ene4870100 0.0 1022260
02:00+11ne586997 0.1 1022458
05:00+11ne5975100 0.1 1022417
08:00+11ne4861100 0.2 1022411
11:00+13ne5655100 0.0 1023945
14:00+13ne6758100 0.0 10231123
17:00+14ene56507 0.0 10231398
20:00+10nne48688 0.0 1024164
21 september, tue
tue2123:00+9n33676 0.0 102556
02:00+11n355499 0.0 1025113
05:00+10nne3672100 0.1 1025260
08:00+9nne377815 0.1 1026219
11:00+12nne455111 0.0 10271415
14:00+13n334750 0.0 10271585
17:00+13nw334660 0.0 10261253
20:00+9nw23626 0.0 102667